Regional Weather Roundup
Issued by NWS

Home | Current Version | Previous Version | Graphics & Text | Print | Product List | Glossary On
Versions: 1 2 3 4 5 6 7 8 9 10 11 12 13 14 15 16 17 18 19 20 21 22 23 24 25 26 27 28 29 30 31 32 33 34 35 36 37 38 39 40 41 42 43 44 45 46 47 48 49 50
000
ASUS43 KLOT 290006
RWRIL

ILLINOIS REGIONAL WEATHER ROUNDUP
NATIONAL WEATHER SERVICE CHICAGO/ROMEOVILLE IL
700 PM CDT THU AUG 28 2014

NOTE: "FAIR" INDICATES FEW OR NO CLOUDS BELOW 12,000 FEET WITH NO
SIGNIFICANT WEATHER AND/OR OBSTRUCTIONS TO VISIBILITY.

* THESE STATIONS ARE NOT UNDER NWS QUALITY CONTROL. THEY ALSO MAY NOT
  REPORT WEATHER SUCH AS PRECIPITATION OR FOG.

ILZ001-002-007-009-015-016-024-290100-
NORTHWEST ILLINOIS

CITY           SKY/WX    TMP DP  RH WIND       PRES   REMARKS
MOLINE         LGT RAIN  69  67  93 E12       29.97F
6HR MIN TEMP:  68; 6HR MAX TEMP:  72; 6HR PCP:  1.93;

STERLING*      CLOUDY    68  64  88 SE13      30.01F
SAVANNA*       CLOUDY    69  65  89 SE6       29.99F
$$

ILZ003-004-008-010-011-017-018-290100-
NORTH CENTRAL ILLINOIS

CITY           SKY/WX    TMP DP  RH WIND       PRES   REMARKS
ROCKFORD       LGT RAIN  66  60  81 E8        30.05S
6HR MIN TEMP:  66; 6HR MAX TEMP:  77; 6HR PCP:  0.05;

FREEPORT*      CLOUDY    65  63  92 E7        30.05F
ROCHELLE*      RAIN      69  66  91 CALM      30.05F
DE KALB*       DRIZZLE   66  60  81 E7        30.06R
PERU*          TSTM      70  66  86 NE9       30.06R
$$

ILZ005-006-012>014-019>023-290100-
NORTHEAST ILLINOIS

CITY           SKY/WX    TMP DP  RH WIND       PRES   REMARKS
CHICAGO-OHARE  CLOUDY    71  57  61 NE8       30.05F
6HR MIN TEMP:  71; 6HR MAX TEMP:  77;

CHICAGO-MIDWAY MOCLDY    74  63  68 NE9       30.05F
6HR MIN TEMP:  73; 6HR MAX TEMP:  77;

AURORA         LGT RAIN  70  61  73 NE7       30.04F
6HR MIN TEMP:  70; 6HR MAX TEMP:  82; 6HR PCP: TRACE;

LANSING*       PTCLDY    72  64  76 NE7       30.05S
JOLIET*        CLOUDY    74  61  64 E10       30.04S
WAUKEGAN       CLOUDY    67  60  78 E7        30.05F
6HR MIN TEMP:  67; 6HR MAX TEMP:  72; 6HR PCP: TRACE;

DUPAGE AIRPORT LGT RAIN  70  60  70 E8        30.05F
6HR MIN TEMP:  70; 6HR MAX TEMP:  81; 6HR PCP: TRACE;

KANKAKEE*      MOCLDY    75  65  71 E6        30.03F
WHEELING       CLOUDY    71  60  68 E5        30.07F
6HR MIN TEMP:  70; 6HR MAX TEMP:  76;

MORRIS*        CLOUDY    75  67  76 E3        30.02F
ROMEOVILLE*    CLOUDY    72  61  69 E9        30.04S
NORTHERLY ISL    N/A     71  63  75 NE7         N/A
$$

LMZ740>746-290100-
SOUTHERN LAKE MICHIGAN

STATION/POSITION SKY/WX   TEMP    WIND        PRES    VSBY  WAVE
                          AIR SEA DIR/SP/G                  HT/PER
                          (F)     (DEG/KT/KT) (MB)    (MI)  (FT/S)
SOUTHERN BUOY              69 69   70/ 10/ 12 1018.3F
WAUKEGAN HARBOR            69      80/  8/  9   N/A
HARRISON CRIB              70      40/  8/  9   N/A
BURNHAM HARBOR             71      30/  6/  8   N/A
CALUMET HARBOR             71      30/  6/  9 1016.6R
MICHIGAN CITY              71      30/ 11/ 12   N/A
MICHIGAN CITY 6N           72 73   60/ 10/ 14   N/A           2/ 3
ST. JOSEPH                 72 72   60/  6/ 10   N/A           1/ 3
$$

ILZ025>027-034>036-040-047-049-050-058-095>099-290100-
WEST-CENTRAL ILLINOIS

CITY           SKY/WX    TMP DP  RH WIND       PRES   REMARKS
QUINCY         LGT RAIN  75  71  87 E6        29.95F
GALESBURG*     CLOUDY    69  68  96 NE12      29.98F
MACOMB*        LGT RAIN  69  69 100 E3        29.98F
JACKSONVILLE*  PTCLDY    86  75  69 SE3       29.98R HX  95
PITTSFIELD*    PTCLDY    84  74  72 N5        29.96S HX  92
$$

ILZ028>032-037-038-041>044-048-051>054-059>061-290100-
CENTRAL ILLINOIS

CITY           SKY/WX    TMP DP  RH WIND       PRES   REMARKS
PONTIAC        CLOUDY    75  72  88 E3        30.02R
DECATUR        PTCLDY    80  73  79 E6        30.00R HX  84
PEORIA         TSTM      71  67  87 CALM      30.00R VSB 1
6HR MIN TEMP:  71; 6HR MAX TEMP:  85; 6HR PCP:  0.47;

LACON*         LGT RAIN  73  68  83 N6        30.01R
LINCOLN*       CLOUDY    80  73  77 E5        29.95R HX  84
SPRINGFIELD    MOCLDY    84  74  71 SE7       29.97R HX  91
6HR MIN TEMP:  84; 6HR MAX TEMP:  88;

TAYLORVILLE    MOCLDY   N/A N/A N/A SE5       29.98R
$$

ILZ033-039-045-046-055>057-062-063-290100-
EAST-CENTRAL ILLINOIS

CITY           SKY/WX    TMP DP  RH WIND       PRES   REMARKS
CHAMPAIGN      PTCLDY    77  70  79 E6        30.01F
DANVILLE*      CLEAR     76  68  76 E3        29.99F
RANTOUL*       PTCLDY    79  66  64 E5        30.02S HX  81
MATTOON        CLEAR     80  73  79 E5        29.99S HX  84
PARIS*         CLEAR     77  72  83 CALM      30.02S
$$

ILZ079-100>102-290100-
SOUTHWEST ILLINOIS

CITY           SKY/WX    TMP DP  RH WIND       PRES   REMARKS
ALTON          MOCLDY    82  75  78 E7        29.96S HX  89
BELLEVILLE     CLOUDY    75  75 100 NE6       29.97F THUNDER FOG
SPARTA*        CLOUDY    76  72  86 S7        30.01R
$$

ILZ064>066-069>071-074>076-080>082-084>086-088>090-092>094-290100-
SOUTH-CENTRAL ILLINOIS

CITY           SKY/WX    TMP DP  RH WIND       PRES   REMARKS
CARBONDALE     CLOUDY    75  70  84 SE3       29.98F
6HR MIN TEMP:  75; 6HR MAX TEMP:  89; 6HR PCP:  0.02;

CAIRO*         CLOUDY    76  73  88 CALM      29.97R FOG
EFFINGHAM*     RAIN      83  72  69 E3        29.99S HX  88
MARION         CLOUDY    75  73  94 CALM      29.99F
MT. VERNON     CLOUDY    77  70  78 S6        30.01R
CENTRALIA*     RAIN      75  72  90 SE5       30.00S
SALEM*         CLOUDY    74  72  93 W3        30.00F
METROPOLIS*    RAIN      72  72 100 CALM      29.98S
$$

ILZ067-068-072-073-078-083-087-091-290100-
SOUTHEAST ILLINOIS

CITY           SKY/WX    TMP DP  RH WIND       PRES   REMARKS
LAWRENCEVILLE  MOCLDY    83  74  74 E5        29.99S HX  89
FLORA*         MOCLDY    78  72  81 SW5       30.00R HX  80
FAIRFIELD*     CLOUDY    79  75  89 S6        29.98F HX  82
HARRISBURG*    LGT RAIN  74  73  98 CALM      30.00F
ROBINSON*      PTCLDY    83  75  76 E5        30.00F HX  91
CARMI*         CLOUDY    78  73  83 SE10      30.00S HX  81
$$

ABBREVIATIONS USED IN REMARKS
   TC - TEMPERATURE IN CELSIUS
  WCI - WIND CHILL INDEX
   HX - HEAT INDEX
  VSB - VISIBILITY
$$



USA.gov is the U.S. government's official web portal to all federal, state and local government web resources and services.